When you browse on this site, cookies collect data to enhance your experience and personalize the content and advertising you see.
Visit our Privacy Policy to learn more. By continuing to use the site, you agree to this use of cookies and data.
  • In Österreich
  • Länderverzeichnis
  • Für 7 Tage
  • Wassertemperatur
  • Wetterkarte
  • News
  • Widgets
  • user-avatar
    Anmelden

    Stündliche Wetter Huejutla de Reyes

    Heute, 23 August, Freitag

    Zeit Temperatur Niederschläge Wind Luftdruck Luftfeuchtigkeit
    00:00 +26°C° 0.3 mm 1 m/S 745 mmHg 95%
    01:00 +26°C° 0.3 mm 1 m/S 745 mmHg 94%
    02:00 +26°C° 0.3 mm 1 m/S 744 mmHg 94%
    03:00 +26°C° 0 mm 1 m/S 744 mmHg 93%
    04:00 +25°C° 0 mm 1 m/S 744 mmHg 92%
    05:00 +23°C° 0 mm 0 m/S 745 mmHg 92%
    06:00 +25°C° 0 mm 0 m/S 745 mmHg 87%
    07:00 +28°C° 0 mm 1 m/S 745 mmHg 82%
    08:00 +30°C° 0 mm 1 m/S 745 mmHg 77%
    09:00 +32°C° 0 mm 1 m/S 745 mmHg 71%
    10:00 +33°C° 0 mm 1 m/S 745 mmHg 66%
    11:00 +35°C° 0 mm 1 m/S 744 mmHg 60%
    12:00 +35°C° 0 mm 1 m/S 744 mmHg 58%
    13:00 +36°C° 0 mm 1 m/S 743 mmHg 55%
    14:00 +36°C° 0 mm 1 m/S 743 mmHg 52%
    15:00 +35°C° 0.2 mm 1 m/S 743 mmHg 58%
    16:00 +35°C° 0.2 mm 2 m/S 743 mmHg 65%
    17:00 +34°C° 0.2 mm 2 m/S 743 mmHg 72%
    18:00 +31°C° 0.1 mm 2 m/S 743 mmHg 77%
    19:00 +30°C° 0.1 mm 2 m/S 744 mmHg 82%
    20:00 +28°C° 0.1 mm 2 m/S 745 mmHg 87%
    21:00 +28°C° 0.1 mm 2 m/S 745 mmHg 88%
    22:00 +27°C° 0.1 mm 2 m/S 745 mmHg 89%
    23:00 +27°C° 0.1 mm 1 m/S 745 mmHg 90%

    Morgen, 24 August, Samstag

    Zeit Temperatur Niederschläge Wind Luftdruck Luftfeuchtigkeit
    00:00 +27°C° 0.2 mm 1 m/S 745 mmHg 90%
    01:00 +26°C° 0.2 mm 1 m/S 745 mmHg 90%
    02:00 +26°C° 0.2 mm 1 m/S 744 mmHg 89%
    03:00 +26°C° 0 mm 1 m/S 744 mmHg 90%
    04:00 +26°C° 0 mm 1 m/S 744 mmHg 91%
    05:00 +26°C° 0 mm 1 m/S 744 mmHg 91%
    06:00 +27°C° 0 mm 1 m/S 745 mmHg 86%
    07:00 +29°C° 0 mm 1 m/S 745 mmHg 81%
    08:00 +30°C° 0 mm 1 m/S 746 mmHg 76%
    09:00 +32°C° 0 mm 1 m/S 745 mmHg 71%
    10:00 +34°C° 0 mm 1 m/S 745 mmHg 65%
    11:00 +35°C° 0 mm 1 m/S 745 mmHg 60%
    12:00 +36°C° 0.1 mm 1 m/S 744 mmHg 57%
    13:00 +36°C° 0.1 mm 1 m/S 744 mmHg 55%
    14:00 +37°C° 0.1 mm 1 m/S 743 mmHg 52%
    15:00 +37°C° 0.2 mm 2 m/S 743 mmHg 58%
    16:00 +36°C° 0.2 mm 2 m/S 743 mmHg 63%
    17:00 +35°C° 0.2 mm 2 m/S 743 mmHg 68%
    18:00 +32°C° 0.5 mm 2 m/S 744 mmHg 76%
    19:00 +30°C° 0.5 mm 2 m/S 744 mmHg 83%
    20:00 +28°C° 0.5 mm 2 m/S 745 mmHg 91%
    21:00 +28°C° 0.3 mm 2 m/S 745 mmHg 92%
    22:00 +27°C° 0.3 mm 1 m/S 745 mmHg 93%
    23:00 +27°C° 0.3 mm 1 m/S 745 mmHg 94%

    übermorgen, 25 August, Sonntag

    Zeit Temperatur Niederschläge Wind Luftdruck Luftfeuchtigkeit
    00:00 +27°C° 0 mm 1 m/S 745 mmHg 94%
    01:00 +26°C° 0 mm 1 m/S 744 mmHg 94%
    02:00 +26°C° 0 mm 1 m/S 744 mmHg 94%
    03:00 +26°C° 0 mm 1 m/S 744 mmHg 94%
    04:00 +26°C° 0 mm 1 m/S 744 mmHg 94%
    05:00 +26°C° 0 mm 1 m/S 744 mmHg 94%
    06:00 +25°C° 0 mm 0 m/S 745 mmHg 90%
    07:00 +27°C° 0 mm 0 m/S 745 mmHg 86%
    08:00 +28°C° 0 mm 0 m/S 745 mmHg 82%
    09:00 +32°C° 0 mm 1 m/S 745 mmHg 76%
    10:00 +33°C° 0 mm 1 m/S 745 mmHg 70%
    11:00 +34°C° 0 mm 1 m/S 744 mmHg 65%
    12:00 +35°C° 0.1 mm 1 m/S 743 mmHg 61%
    13:00 +36°C° 0.1 mm 1 m/S 743 mmHg 58%
    14:00 +36°C° 0.1 mm 1 m/S 742 mmHg 55%
    15:00 +35°C° 0.2 mm 1 m/S 742 mmHg 60%
    16:00 +36°C° 0.2 mm 2 m/S 742 mmHg 65%
    17:00 +35°C° 0.2 mm 2 m/S 742 mmHg 70%
    18:00 +32°C° 0 mm 2 m/S 742 mmHg 76%
    19:00 +30°C° 0 mm 2 m/S 743 mmHg 81%
    20:00 +29°C° 0 mm 2 m/S 744 mmHg 87%
    21:00 +28°C° 0.1 mm 2 m/S 744 mmHg 89%
    22:00 +28°C° 0.1 mm 1 m/S 744 mmHg 90%
    23:00 +27°C° 0.1 mm 1 m/S 744 mmHg 92%

    26 August, Montag

    Zeit Temperatur Niederschläge Wind Luftdruck Luftfeuchtigkeit
    00:00 +27°C° 0 mm 1 m/S 743 mmHg 92%
    01:00 +27°C° 0 mm 1 m/S 743 mmHg 93%
    02:00 +26°C° 0 mm 1 m/S 743 mmHg 94%
    03:00 +24°C° 0 mm 0 m/S 743 mmHg 94%
    04:00 +24°C° 0 mm 0 m/S 743 mmHg 94%
    05:00 +24°C° 0 mm 0 m/S 743 mmHg 94%
    06:00 +25°C° 0 mm 0 m/S 743 mmHg 90%
    07:00 +29°C° 0 mm 1 m/S 744 mmHg 86%
    08:00 +30°C° 0 mm 1 m/S 744 mmHg 83%
    09:00 +31°C° 0 mm 1 m/S 743 mmHg 77%
    10:00 +33°C° 0 mm 1 m/S 743 mmHg 71%
    11:00 +34°C° 0 mm 1 m/S 743 mmHg 66%
    12:00 +34°C° 0 mm 1 m/S 742 mmHg 64%
    13:00 +35°C° 0 mm 1 m/S 741 mmHg 63%
    14:00 +35°C° 0 mm 1 m/S 741 mmHg 61%
    15:00 +35°C° 0.1 mm 1 m/S 741 mmHg 64%
    16:00 +34°C° 0.1 mm 1 m/S 741 mmHg 67%
    17:00 +33°C° 0.1 mm 1 m/S 741 mmHg 70%
    18:00 +32°C° 0.2 mm 1 m/S 742 mmHg 76%
    19:00 +30°C° 0.2 mm 2 m/S 742 mmHg 81%
    20:00 +28°C° 0.2 mm 2 m/S 743 mmHg 87%
    21:00 +28°C° 0 mm 1 m/S 743 mmHg 88%
    22:00 +27°C° 0 mm 1 m/S 743 mmHg 89%
    23:00 +27°C° 0 mm 1 m/S 743 mmHg 90%

    27 August, Dienstag

    Zeit Temperatur Niederschläge Wind Luftdruck Luftfeuchtigkeit
    00:00 +27°C° 0 mm 1 m/S 743 mmHg 91%
    01:00 +26°C° 0 mm 1 m/S 743 mmHg 92%
    02:00 +26°C° 0 mm 1 m/S 743 mmHg 92%
    03:00 +26°C° 0 mm 1 m/S 743 mmHg 93%
    04:00 +26°C° 0 mm 1 m/S 743 mmHg 93%
    05:00 +26°C° 0 mm 1 m/S 743 mmHg 94%
    06:00 +27°C° 0 mm 1 m/S 743 mmHg 90%
    07:00 +28°C° 0 mm 1 m/S 744 mmHg 86%
    08:00 +30°C° 0 mm 1 m/S 744 mmHg 82%
    09:00 +31°C° 0.1 mm 1 m/S 744 mmHg 75%
    10:00 +33°C° 0.1 mm 1 m/S 744 mmHg 69%
    11:00 +35°C° 0.1 mm 2 m/S 743 mmHg 62%
    12:00 +36°C° 0.1 mm 2 m/S 743 mmHg 61%
    13:00 +36°C° 0.1 mm 2 m/S 742 mmHg 60%
    14:00 +36°C° 0.1 mm 2 m/S 742 mmHg 59%
    15:00 +34°C° 1 mm 1 m/S 742 mmHg 67%
    16:00 +33°C° 1 mm 1 m/S 742 mmHg 74%
    17:00 +31°C° 1 mm 1 m/S 742 mmHg 82%
    18:00 +30°C° 0.7 mm 1 m/S 743 mmHg 85%
    19:00 +29°C° 0.7 mm 1 m/S 744 mmHg 88%
    20:00 +28°C° 0.7 mm 1 m/S 744 mmHg 91%
    21:00 +27°C° 0.1 mm 1 m/S 745 mmHg 92%
    22:00 +27°C° 0.1 mm 1 m/S 745 mmHg 93%
    23:00 +27°C° 0.1 mm 1 m/S 745 mmHg 94%

    28 August, Mittwoch

    Zeit Temperatur Niederschläge Wind Luftdruck Luftfeuchtigkeit
    00:00 +27°C° 0 mm 1 m/S 745 mmHg 94%
    01:00 +26°C° 0 mm 1 m/S 744 mmHg 95%
    02:00 +24°C° 0 mm 0 m/S 744 mmHg 95%
    03:00 +24°C° 0.3 mm 0 m/S 745 mmHg 95%
    04:00 +24°C° 0.3 mm 0 m/S 745 mmHg 95%
    05:00 +24°C° 0.3 mm 0 m/S 745 mmHg 95%
    06:00 +25°C° 0.2 mm 0 m/S 746 mmHg 92%
    07:00 +28°C° 0.2 mm 1 m/S 746 mmHg 89%
    08:00 +29°C° 0.2 mm 1 m/S 746 mmHg 86%
    09:00 +30°C° 0.3 mm 1 m/S 746 mmHg 80%
    10:00 +32°C° 0.3 mm 1 m/S 746 mmHg 74%
    11:00 +33°C° 0.3 mm 1 m/S 745 mmHg 68%
    12:00 +33°C° 1.2 mm 1 m/S 745 mmHg 70%
    13:00 +32°C° 1.2 mm 1 m/S 744 mmHg 72%
    14:00 +32°C° 1.2 mm 1 m/S 744 mmHg 74%
    15:00 +32°C° 0.7 mm 1 m/S 744 mmHg 76%
    16:00 +31°C° 0.7 mm 1 m/S 744 mmHg 78%
    17:00 +31°C° 0.7 mm 1 m/S 744 mmHg 81%
    18:00 +30°C° 0.3 mm 1 m/S 745 mmHg 84%
    19:00 +29°C° 0.3 mm 1 m/S 746 mmHg 87%
    20:00 +28°C° 0.3 mm 1 m/S 746 mmHg 90%
    21:00 +27°C° 0.9 mm 1 m/S 747 mmHg 91%
    22:00 +27°C° 0.9 mm 1 m/S 747 mmHg 92%
    23:00 +25°C° 0.9 mm 0 m/S 747 mmHg 93%
    Mehr zeigen